| time (UTC) | temp C | wind direction | speed KPH | gust KPH | rain 1hr cm | rain 24hr cm | rain mn cm | humidity % | barometer mb |
| 20260831053044 | 23 | 0.0 | 3.2 | 0.00 | 0.00 | 0.00 | 84 | 1016.4 | |
| 20260831051541 | 23 | 0.0 | 6.4 | 0.00 | 0.00 | 0.00 | 84 | 1016.3 | |
| 20260831050041 | 23 | 0.0 | 6.4 | 0.00 | 0.00 | 0.00 | 85 | 1016.2 | |
| 20260831044540 | 23 | 0.0 | 4.8 | 0.00 | 0.00 | 0.00 | 86 | 1016.1 | |
| 20260831043039 | 23 | 0.0 | 6.4 | 0.00 | 0.00 | 0.00 | 87 | 1016.1 | |
| 20260831041548 | 23 | 0.0 | 6.4 | 0.00 | 0.00 | 0.00 | 85 | 1016.0 | |
| 20260831040034 | 23 | 0.0 | 6.4 | 0.00 | 0.00 | 0.00 | 86 | 1016.0 | |
| 20260831034533 | 23 | 0.0 | 9.7 | 0.00 | 0.00 | 0.00 | 86 | 1016.0 | |
| 20260831033033 | 23 | 0.0 | 8.0 | 0.00 | 0.00 | 0.00 | 86 | 1015.9 | |
| 20260831031540 | 23 | 0.0 | 8.0 | 0.00 | 0.00 | 0.00 | 86 | 1015.9 | |
| 20260831030032 | 23 | 0.0 | 9.7 | 0.00 | 0.00 | 0.00 | 84 | 1015.9 | |
| 20260831024532 | 24 | 0.0 | 9.7 | 0.00 | 0.00 | 0.00 | 85 | 1016.0 | |
| 20260831023031 | 23 | 0.0 | 6.4 | 0.00 | 0.00 | 0.00 | 85 | 1016.1 | |
| 20260831021531 | 24 | 0.0 | 4.8 | 0.00 | 0.00 | 0.00 | 85 | 1016.4 | |
| 20260831020030 | 24 | 0.0 | 4.8 | 0.00 | 0.00 | 0.00 | 84 | 1016.3 | |
| 20260831014530 | 25 | 0.0 | 6.4 | 0.00 | 0.00 | 0.00 | 83 | 1016.3 | |
| 20260831013030 | 25 | 0.0 | 9.7 | 0.00 | 0.00 | 0.00 | 83 | 1016.0 | |
| 20260831011630 | 25 | 0.0 | 8.0 | 0.00 | 0.00 | 0.00 | 83 | 1015.8 | |
| 20260831010034 | 25 | 0.0 | 8.0 | 0.00 | 0.00 | 0.00 | 83 | 1016.0 | |
| 20260831004528 | 24 | 0.0 | 6.4 | 0.00 | 0.00 | 0.00 | 84 | 1015.8 | |
| 20260831003027 | 24 | 0.0 | 4.8 | 0.00 | 0.00 | 0.00 | 85 | 1015.8 | |
| 20260831001526 | 25 | 0.0 | 3.2 | 0.00 | 0.00 | 0.00 | 84 | 1015.8 | |
| 20260831000027 | 25 | 0.0 | 3.2 | 0.00 | 0.00 | 0.00 | 82 | 1015.9 | |
| 20260830234538 | 25 | 0.0 | 3.2 | 0.00 | 0.00 | 0.00 | 82 | 1016.0 | |
| 20260830233025 | 26 | 0.0 | 3.2 | 0.00 | 0.00 | 0.00 | 80 | 1016.1 | |
| 20260830231524 | 27 | 0.0 | 3.2 | 0.00 | 0.00 | 0.00 | 78 | 1016.3 | |
| 20260830230027 | 27 | 0.0 | 3.2 | 0.00 | 0.00 | 0.00 | 77 | 1016.5 | |
| 20260830224522 | 27 | 0.0 | 4.8 | 0.00 | 0.00 | 0.00 | 75 | 1016.5 | |
| 20260830223023 | 27 | 0.0 | 4.8 | 0.00 | 0.00 | 0.00 | 71 | 1016.5 | |
| 20260830221528 | 27 | 0.0 | 4.8 | 0.00 | 0.00 | 0.00 | 72 | 1016.5 | |
| 20260830220020 | 27 | 0.0 | 8.0 | 0.00 | 0.00 | 0.00 | 71 | 1016.5 | |
| 20260830214519 | 27 | 0.0 | 12.9 | 0.00 | 0.00 | 0.00 | 70 | 1016.3 | |
| 20260830213023 | 27 | 0.0 | 12.9 | 0.00 | 0.00 | 0.00 | 69 | 1016.1 | |
| 20260830211520 | 28 | 0.0 | 17.7 | 0.00 | 0.00 | 0.00 | 67 | 1016.0 | |
| 20260830210019 | 28 | 0.0 | 19.3 | 0.00 | 0.00 | 0.00 | 65 | 1016.0 | |
| 20260830204531 | 28 | 0.0 | 24.1 | 0.00 | 0.00 | 0.00 | 62 | 1015.8 | |
| 20260830203015 | 28 | 0.0 | 32.2 | 0.00 | 0.00 | 0.00 | 59 | 1016.0 | |
| 20260830201511 | 28 | 0.0 | 25.7 | 0.00 | 0.00 | 0.00 | 61 | 1016.2 | |
| 20260830200010 | 27 | 0.0 | 24.1 | 0.00 | 0.00 | 0.00 | 65 | 1016.6 | |
| 20260830194506 | 27 | 0.0 | 22.5 | 0.00 | 0.00 | 0.00 | 66 | 1016.8 | |
| 20260830193004 | 26 | 0.0 | 24.1 | 0.00 | 0.00 | 0.00 | 68 | 1016.8 | |
| 20260830191607 | 26 | 0.0 | 20.9 | 0.00 | 0.00 | 0.00 | 74 | 1016.7 | |
| 20260830190057 | 25 | 0.0 | 29.0 | 0.00 | 0.00 | 0.00 | 78 | 1016.6 | |
| 20260830184554 | 25 | 360 | 0.0 | 27.4 | 0.00 | 0.00 | 0.00 | 79 | 1016.6 |
| 20260830183051 | 24 | 0.0 | 27.4 | 0.00 | 0.00 | 0.00 | 83 | 1016.5 | |
| 20260830181552 | 23 | 0.0 | 25.7 | 0.00 | 0.00 | 0.00 | 82 | 1016.7 | |
| 20260830180054 | 23 | 0.0 | 24.1 | 0.00 | 0.00 | 0.00 | 84 | 1017.0 | |
| 20260830174553 | 24 | 0.0 | 20.9 | 0.00 | 0.00 | 0.00 | 81 | 1017.1 | |
| 20260830173102 | 24 | 360 | 0.0 | 16.1 | 0.00 | 0.00 | 0.00 | 79 | 1017.8 |
| 20260830171548 | 24 | 0.0 | 8.0 | 0.00 | 0.00 | 0.00 | 80 | 1018.4 | |
| 20260830170044 | 24 | 0.0 | 8.0 | 0.00 | 0.00 | 0.00 | 78 | 1019.0 | |
| 20260830164555 | 24 | 0.0 | 4.8 | 0.00 | 0.00 | 0.00 | 79 | 1019.2 | |
| 20260830163057 | 24 | 0.0 | 4.8 | 0.00 | 0.00 | 0.00 | 79 | 1019.3 | |
| 20260830161539 | 23 | 0.0 | 3.2 | 0.00 | 0.00 | 0.00 | 79 | 1019.3 | |
| 20260830160038 | 23 | 0.0 | 4.8 | 0.00 | 0.00 | 0.00 | 80 | 1019.4 | |
| 20260830154539 | 23 | 0.0 | 4.8 | 0.00 | 0.00 | 0.00 | 77 | 1019.3 | |
| 20260830153033 | 23 | 0.0 | 3.2 | 0.00 | 0.00 | 0.00 | 80 | 1019.3 | |
| 20260830151533 | 22 | 0.0 | 1.6 | 0.00 | 0.00 | 0.00 | 84 | 1019.1 | |
| 20260830150036 | 22 | 0.0 | 1.6 | 0.00 | 0.00 | 0.00 | 84 | 1019.0 | |
| 20260830144523 | 22 | 0.0 | 1.6 | 0.00 | 0.00 | 0.00 | 84 | 1018.9 | |
| 20260830143021 | 22 | 0.0 | 4.8 | 0.00 | 0.00 | 0.00 | 84 | 1018.7 | |
| 20260830141516 | 22 | 0.0 | 6.4 | 0.00 | 0.00 | 0.00 | 83 | 1018.4 | |
| 20260830140017 | 21 | 0.0 | 8.0 | 0.00 | 0.00 | 0.00 | 83 | 1018.1 | |
| 20260830134522 | 21 | 360 | 0.0 | 8.0 | 0.00 | 0.00 | 0.00 | 83 | 1018.0 |
| 20260830133021 | 21 | 0.0 | 12.9 | 0.00 | 0.00 | 0.00 | 83 | 1018.0 | |
| 20260830131522 | 21 | 0.0 | 12.9 | 0.00 | 0.00 | 0.00 | 82 | 1017.7 | |
| 20260830130013 | 21 | 0.0 | 14.5 | 0.00 | 0.00 | 0.00 | 84 | 1017.5 | |
| 20260830124506 | 20 | 0.0 | 9.7 | 0.00 | 0.00 | 0.00 | 86 | 1017.6 | |
| 20260830123002 | 20 | 0.0 | 12.9 | 0.00 | 0.00 | 0.00 | 86 | 1017.7 | |
| 20260830121603 | 20 | 0.0 | 14.5 | 0.00 | 0.00 | 0.00 | 86 | 1017.4 | |
| 20260830114553 | 19 | 0.0 | 12.9 | 0.00 | 0.00 | 0.00 | 86 | 1017.2 | |
| 20260830113048 | 19 | 0.0 | 12.9 | 0.00 | 0.00 | 0.00 | 86 | 1017.0 | |
| 20260830111546 | 19 | 0.0 | 16.1 | 0.00 | 0.00 | 0.00 | 86 | 1017.3 | |
| 20260830110045 | 19 | 0.0 | 19.3 | 0.00 | 0.00 | 0.00 | 86 | 1017.3 | |
| 20260830104546 | 20 | 0.0 | 9.7 | 0.00 | 0.00 | 0.00 | 85 | 1017.4 | |
| 20260830103045 | 20 | 0.0 | 9.7 | 0.00 | 0.00 | 0.00 | 85 | 1017.5 | |
| 20260830101544 | 20 | 0.0 | 4.8 | 0.00 | 0.00 | 0.00 | 85 | 1017.7 | |
| 20260830094543 | 19 | 0.0 | 12.9 | 0.00 | 0.00 | 0.00 | 85 | 1017.7 | |
| 20260830093042 | 19 | 0.0 | 9.7 | 0.00 | 0.00 | 0.00 | 86 | 1017.6 | |
| 20260830091542 | 19 | 0.0 | 8.0 | 0.00 | 0.00 | 0.00 | 87 | 1017.5 | |
| 20260830090041 | 19 | 0.0 | 12.9 | 0.00 | 0.00 | 0.00 | 86 | 1017.3 | |
| 20260830084540 | 19 | 0.0 | 8.0 | 0.00 | 0.00 | 0.00 | 86 | 1017.2 | |
| 20260830083043 | 19 | 0.0 | 16.1 | 0.00 | 0.00 | 0.00 | 86 | 1017.2 | |
| 20260830081543 | 18 | 0.0 | 9.7 | 0.00 | 0.00 | 0.00 | 86 | 1017.2 | |
| 20260830080036 | 19 | 0.0 | 12.9 | 0.00 | 0.00 | 0.00 | 86 | 1017.3 | |
| 20260830074535 | 18 | 0.0 | 9.7 | 0.00 | 0.00 | 0.00 | 86 | 1017.5 | |
| 20260830073044 | 19 | 0.0 | 12.9 | 0.00 | 0.00 | 0.00 | 85 | 1017.4 | |
| 20260830071538 | 19 | 0.0 | 9.7 | 0.00 | 0.00 | 0.00 | 84 | 1017.6 | |
| 20260830070033 | 19 | 0.0 | 9.7 | 0.00 | 0.00 | 0.00 | 84 | 1017.7 | |
| 20260830064532 | 19 | 0.0 | 9.7 | 0.00 | 0.00 | 0.00 | 84 | 1017.6 | |
| 20260830063031 | 19 | 0.0 | 12.9 | 0.00 | 0.00 | 0.00 | 86 | 1017.7 | |
| 20260830061531 | 19 | 0.0 | 8.0 | 0.00 | 0.00 | 0.00 | 86 | 1018.0 | |
| 20260830060029 | 19 | 0.0 | 6.4 | 0.00 | 0.00 | 0.00 | 86 | 1018.1 | |
| 20260830054527 | 19 | 0.0 | 6.4 | 0.00 | 0.00 | 0.00 | 86 | 1018.3 |